Regional Weather Roundup
Issued by NWS

Home | Current Version | Previous Version | Graphics & Text | Print | Product List | Glossary On
Versions: 1 2 3 4 5 6 7 8 9 10 11 12 13 14 15 16 17 18 19 20 21 22 23 24 25 26 27 28 29 30 31 32 33 34 35 36 37 38 39 40 41 42 43 44 45 46 47 48 49 50
000
ASUS43 KIND 040559
RWRIN

WEATHER ROUNDUP FOR INDIANA
NATIONAL WEATHER SERVICE INDIANAPOLIS IN
200 AM EDT MON MAY 04 2015

NOTE: "FAIR" INDICATES FEW OR NO CLOUDS BELOW 12,000 FEET WITH NO
SIGNIFICANT WEATHER AND/OR OBSTRUCTIONS TO VISIBILITY.

* - STATION DOES NOT REPORT WEATHER SUCH AS PRECIPITATION OR FOG.

+ - STATION NOT QUALITY CONTROLLED BY THE NATIONAL WEATHER SERVICE.
    USE DATA WITH CAUTION...ESPECIALLY DEWPOINT AND RELATIVE
    HUMIDITY OBSERVATIONS.

INZ001>003-010>013-019-020-040700-
NORTHWEST INDIANA

CITY           SKY/WX    TMP DP  RH WIND       PRES   REMARKS

$$

LMZ046-743>745-040700-
SOUTHERN LAKE MICHIGAN

STATION/POSITION TIME  TEMP    WIND        PRES    WAVE
                       AIR SEA DIR/SP/G            HT
                 (UTC) (F)     (DEG/KT/KT) (MB)    (FT)
BURNS HARBOR     0500   68     180/ 12/ 16 1014.6S
MICHIGAN CITY    0500   68     160/ 15/ 17   N/A
5NW MICH CITY    0500   61 51  190/ 10/ 12   N/A     1

$$

INZ004-005-014>016-021>024-040700-
NORTH CENTRAL INDIANA

CITY           SKY/WX    TMP DP  RH WIND       PRES   REMARKS
GOSHEN         CLOUDY    68  46  45 S15       30.00S
6HR MIN TEMP:  68; 6HR MAX TEMP:  74;

SOUTH BEND     LGT RAIN  68  48  48 S13       29.98S
6HR MIN TEMP:  68; 6HR MAX TEMP:  76; 6HR PCP: TRACE;


$$

INZ006>009-017-018-025>027-040700-
NORTHEAST INDIANA

CITY           SKY/WX    TMP DP  RH WIND       PRES   REMARKS
ANGOLA *+      CLEAR     64  55  72 S6        30.03R
FORT WAYNE     CLOUDY    62  49  62 S9        30.05R
6HR MIN TEMP:  60; 6HR MAX TEMP:  71;


$$

INZ028-029-035-036-043>045-051>053-040700-
WEST CENTRAL INDIANA

CITY           SKY/WX    TMP DP  RH WIND       PRES   REMARKS
CRAWFORDSVL +  PTCLDY    58  42  55 S8        30.04S
6HR MIN TEMP:  56; 6HR MAX TEMP:  71;

GREENCASTLE +  CLEAR     55  43  62 S5        30.06S
LAFAYETTE      PTCLDY    64  47  53 S6        30.01S
6HR MIN TEMP:  64; 6HR MAX TEMP:  74;

TERRE HAUTE    CLEAR     63  49  60 S8        30.04S
6HR MIN TEMP:  62; 6HR MAX TEMP:  75;


$$

INZ030>032-037>040-046>048-054>057-064-065-040700-
CENTRAL INDIANA

CITY           SKY/WX    TMP DP  RH WIND       PRES   REMARKS
GREENWOOD *+   CLEAR     59  46  63 S6        30.08R
INDIANAPOLIS   CLEAR     62  46  55 S9        30.04S
6HR MIN TEMP:  61; 6HR MAX TEMP:  73;

-EAGLE CREEK   CLEAR     60  48  64 S5        30.05S
6HR MIN TEMP:  60; 6HR MAX TEMP:  74;

MT COMFORT *+  PTCLDY    61  39  44 S6        30.07S
SHELBYVILLE    CLEAR     63  49  60 S7        30.07R
6HR MIN TEMP:  61; 6HR MAX TEMP:  74;


$$

INZ033-034-041-042-049-050-058-059-040700-
EAST CENTRAL INDIANA

CITY           SKY/WX    TMP DP  RH WIND       PRES   REMARKS
MUNCIE         MOCLDY    64  48  56 S8        30.06S
6HR MIN TEMP:  64; 6HR MAX TEMP:  75;


$$

INZ060-061-067>069-081>083-085>088-040700-
SOUTHWEST INDIANA

CITY           SKY/WX    TMP DP  RH WIND       PRES   REMARKS
EVANSVILLE     CLEAR     65  49  56 CALM      30.07R
6HR MIN TEMP:  64; 6HR MAX TEMP:  76;

HUNTINGBURG *+ CLEAR     63  48  59 S5        30.09R
6HR MIN TEMP:  63; 6HR MAX TEMP:  73;


$$

INZ062-063-066-070>080-084-089>092-040700-
SOUTH CENTRAL AND SOUTHEAST INDIANA

CITY           SKY/WX    TMP DP  RH WIND       PRES   REMARKS
BLOOMINGTON    CLEAR     62  48  60 S7        30.07R
6HR MIN TEMP:  61; 6HR MAX TEMP:  75;

MADISON *+     CLEAR     59  46  63 CALM      30.12R
SEYMOUR +      CLEAR     59  50  72 S6        30.08R

$$




USA.gov is the U.S. government's official web portal to all federal, state and local government web resources and services.